Regional Weather Roundup
Issued by NWS Albany, NY

Home | Current Version | Previous Version | Text Only | Print | Product List | Glossary On
Versions: 1 2 3 4 5 6 7 8 9 10 11 12 13 14 15 16 17 18 19 20 21 22 23 24 25 26 27 28 29 30 31 32 33 34 35 36 37 38 39 40 41 42 43 44 45 46 47 48 49 50
000
ASUS41 KALY 160810
RWRALY

NEW YORK STATE HOURLY WEATHER ROUNDUP
NATIONAL WEATHER SERVICE ALBANY NY
400 AM EDT MON OCT 16 2017

NOTE: "FAIR" INDICATES FEW OR NO CLOUDS BELOW 12,000 FEET WITH NO
SIGNIFICANT WEATHER AND/OR NO OBSTRUCTIONS TO VISIBILITY.

NYZ032-033-038>043-046>054-057>066-NYZ062>081-082-084-160900-
EAST


CITY           SKY/WX    TMP DP  RH WIND       PRES   REMARKS
ALBANY         CLOUDY    55  44  66 W14G32    29.88R
GLENS FALLS    NOT AVBL
POUGHKEEPSIE   LGT RAIN  61  54  77 W10       29.83R
NEWBURGH       CLOUDY    61  59  94 W8        29.87R
MONTGOMERY     CLOUDY    60  53  77 NW8       29.85S
WHITE PLAINS   LGT RAIN  61  56  83 NW13      29.84R
ISLIP          CLOUDY    67  57  70 NW17G23   29.81R
NEW YORK CITY  CLOUDY    66  54  65 NW20G33   29.83R
CENTRAL PARK   CLOUDY    66  53  63 NW9       29.86S
$$

NYZ005>009-017-018-044>046-055-056-160900-
CENTRAL


CITY           SKY/WX    TMP DP  RH WIND       PRES   REMARKS
FULTON         CLOUDY    48  41  76 N8        30.00R
SYRACUSE       LGT RAIN  47  45  93 W10       29.99R
ROME           CLOUDY    46  43  89 NW14      29.97R
ELMIRA         LGT RAIN  49  44  83 N9        30.00R
BINGHAMTON     CLOUDY    44  42  93 NW9       29.97R
MONTICELLO     PTCLDY    53  47  79 W13G22    29.90R
$$

NYZ026>034-041>043-087-160900-
NORTH


CITY           SKY/WX    TMP DP  RH WIND       PRES   REMARKS
WATERTOWN      CLOUDY    46  38  73 N8        30.00R
FORT DRUM      NOT AVBL
OGDENSBURG     CLOUDY    45  37  72 NW9G17    29.98R
MASSENA        CLOUDY    45  38  76 W14       29.97R
SARANAC LAKE   CLOUDY    39  38  96 VRB5      29.90R FOG
PLATTSBURGH    CLOUDY    47  39  74 NW16      29.90R
$$

NYZ001>004-010>016-019>021-085-160900-
WEST


CITY           SKY/WX    TMP DP  RH WIND       PRES   REMARKS
NIAGARA FALLS  CLOUDY    48  37  65 N13       30.08R
BUFFALO        CLOUDY    46  37  71 NW12      30.07R
DUNKIRK        CLOUDY    49  39  68 N12       30.08S
JAMESTOWN      CLOUDY    44  39  82 N6        30.07R
WELLSVILLE     LGT RAIN  44  40  85 NW12      30.03R
ROCHESTER      CLOUDY    47  39  74 NW12      30.05R
$$

             KEY
       WCI = WIND CHILL INDEX
       VSB = VISIBILITY
       HX  = HEAT INDEX
$$



USA.gov is the U.S. government's official web portal to all federal, state and local government web resources and services.